![]() |
EMODnet Physics ERDDAP
Easier access to scientific data |
log in|
Brought to you by EMODnet Physics |
| Dataset Title: | NDBC - Collection of dew point temperature (DEWT) TimeSeries - IN SITU MultiPointTimeSeriesObservation
|
| Institution: | NDBC (Dataset ID: TS_DEWT_NDBC) |
| Information: | Summary
| License
| FGDC
| ISO 19115
| Metadata
| Background
| Subset
| Data Access Form
| Make a graph
|
| Name | Last modified | Size | Description | |
|---|---|---|---|---|
| Parent Directory | - | - | ||
| 42013_TS_DEWT_012004.nc | 21-Nov-2024 01:24 | 449115 | ||
| 42013_TS_DEWT_012005.nc | 21-Nov-2024 02:18 | 448953 | ||
| 42013_TS_DEWT_012006.nc | 21-Nov-2024 03:04 | 448402 | ||
| 42013_TS_DEWT_012009.nc | 21-Nov-2024 04:42 | 449845 | ||
| 42013_TS_DEWT_012010.nc | 21-Nov-2024 05:31 | 434169 | ||
| 42013_TS_DEWT_012011.nc | 21-Nov-2024 06:21 | 449598 | ||
| 42013_TS_DEWT_012012.nc | 21-Nov-2024 07:11 | 449515 | ||
| 42013_TS_DEWT_012016.nc | 21-Nov-2024 08:27 | 449107 | ||
| 42013_TS_DEWT_012017.nc | 21-Nov-2024 09:18 | 449554 | ||
| 42013_TS_DEWT_012018.nc | 21-Nov-2024 10:04 | 449005 | ||
| 42013_TS_DEWT_012019.nc | 21-Nov-2024 11:03 | 449128 | ||
| 42013_TS_DEWT_012020.nc | 21-Nov-2024 11:56 | 449046 | ||
| 42013_TS_DEWT_012021.nc | 21-Nov-2024 13:01 | 449446 | ||
| 42013_TS_DEWT_012022.nc | 21-Nov-2024 14:10 | 449660 | ||
| 42013_TS_DEWT_012023.nc | 21-Nov-2024 15:09 | 449184 | ||
| 42013_TS_DEWT_022004.nc | 21-Nov-2024 01:29 | 450026 | ||
| 42013_TS_DEWT_022005.nc | 21-Nov-2024 02:22 | 429580 | ||
| 42013_TS_DEWT_022006.nc | 21-Nov-2024 03:08 | 449848 | ||
| 42013_TS_DEWT_022009.nc | 21-Nov-2024 04:47 | 444835 | ||
| 42013_TS_DEWT_022010.nc | 21-Nov-2024 05:36 | 451005 | ||
| 42013_TS_DEWT_022011.nc | 21-Nov-2024 06:26 | 449697 | ||
| 42013_TS_DEWT_022012.nc | 21-Nov-2024 07:15 | 450829 | ||
| 42013_TS_DEWT_022016.nc | 21-Nov-2024 08:31 | 449754 | ||
| 42013_TS_DEWT_022017.nc | 21-Nov-2024 09:21 | 451002 | ||
| 42013_TS_DEWT_022018.nc | 21-Nov-2024 10:09 | 451315 | ||
| 42013_TS_DEWT_022019.nc | 21-Nov-2024 11:06 | 449925 | ||
| 42013_TS_DEWT_022020.nc | 21-Nov-2024 12:02 | 451259 | ||
| 42013_TS_DEWT_022021.nc | 21-Nov-2024 13:08 | 450200 | ||
| 42013_TS_DEWT_022022.nc | 21-Nov-2024 14:15 | 450380 | ||
| 42013_TS_DEWT_022023.nc | 21-Nov-2024 15:13 | 450941 | ||
| 42013_TS_DEWT_032004.nc | 21-Nov-2024 01:33 | 449877 | ||
| 42013_TS_DEWT_032005.nc | 21-Nov-2024 02:27 | 450310 | ||
| 42013_TS_DEWT_032006.nc | 21-Nov-2024 03:11 | 451219 | ||
| 42013_TS_DEWT_032009.nc | 21-Nov-2024 04:51 | 450657 | ||
| 42013_TS_DEWT_032010.nc | 21-Nov-2024 05:41 | 449933 | ||
| 42013_TS_DEWT_032011.nc | 21-Nov-2024 06:31 | 449765 | ||
| 42013_TS_DEWT_032012.nc | 21-Nov-2024 07:19 | 449225 | ||
| 42013_TS_DEWT_032016.nc | 21-Nov-2024 08:36 | 443781 | ||
| 42013_TS_DEWT_032017.nc | 21-Nov-2024 09:24 | 450220 | ||
| 42013_TS_DEWT_032018.nc | 21-Nov-2024 10:14 | 449436 | ||
| 42013_TS_DEWT_032019.nc | 21-Nov-2024 11:09 | 450810 | ||
| 42013_TS_DEWT_032020.nc | 21-Nov-2024 12:07 | 450141 | ||
| 42013_TS_DEWT_032021.nc | 21-Nov-2024 13:13 | 451087 | ||
| 42013_TS_DEWT_032022.nc | 21-Nov-2024 14:21 | 450437 | ||
| 42013_TS_DEWT_032023.nc | 21-Nov-2024 15:17 | 450425 | ||
| 42013_TS_DEWT_042004.nc | 21-Nov-2024 01:38 | 450159 | ||
| 42013_TS_DEWT_042005.nc | 21-Nov-2024 02:32 | 451274 | ||
| 42013_TS_DEWT_042006.nc | 21-Nov-2024 03:16 | 450353 | ||
| 42013_TS_DEWT_042007.nc | 21-Nov-2024 03:54 | 449783 | ||
| 42013_TS_DEWT_042009.nc | 21-Nov-2024 04:54 | 439395 | ||
| 42013_TS_DEWT_042010.nc | 21-Nov-2024 05:46 | 450057 | ||
| 42013_TS_DEWT_042011.nc | 21-Nov-2024 06:36 | 450423 | ||
| 42013_TS_DEWT_042012.nc | 21-Nov-2024 07:23 | 451282 | ||
| 42013_TS_DEWT_042016.nc | 21-Nov-2024 08:41 | 449750 | ||
| 42013_TS_DEWT_042017.nc | 21-Nov-2024 09:28 | 450444 | ||
| 42013_TS_DEWT_042018.nc | 21-Nov-2024 10:19 | 438283 | ||
| 42013_TS_DEWT_042019.nc | 21-Nov-2024 11:13 | 437693 | ||
| 42013_TS_DEWT_042020.nc | 21-Nov-2024 12:13 | 439979 | ||
| 42013_TS_DEWT_042021.nc | 21-Nov-2024 13:19 | 448879 | ||
| 42013_TS_DEWT_042022.nc | 21-Nov-2024 14:26 | 449947 | ||
| 42013_TS_DEWT_042023.nc | 21-Nov-2024 15:21 | 449011 | ||
| 42013_TS_DEWT_052004.nc | 21-Nov-2024 01:42 | 450215 | ||
| 42013_TS_DEWT_052005.nc | 21-Nov-2024 02:36 | 449476 | ||
| 42013_TS_DEWT_052006.nc | 21-Nov-2024 03:20 | 450130 | ||
| 42013_TS_DEWT_052007.nc | 21-Nov-2024 03:58 | 450631 | ||
| 42013_TS_DEWT_052009.nc | 21-Nov-2024 04:58 | 449509 | ||
| 42013_TS_DEWT_052010.nc | 21-Nov-2024 05:50 | 449230 | ||
| 42013_TS_DEWT_052011.nc | 21-Nov-2024 06:40 | 448644 | ||
| 42013_TS_DEWT_052012.nc | 21-Nov-2024 07:28 | 448949 | ||
| 42013_TS_DEWT_052016.nc | 21-Nov-2024 08:46 | 442877 | ||
| 42013_TS_DEWT_052017.nc | 21-Nov-2024 09:33 | 449038 | ||
| 42013_TS_DEWT_052018.nc | 21-Nov-2024 10:25 | 448991 | ||
| 42013_TS_DEWT_052019.nc | 21-Nov-2024 11:17 | 449621 | ||
| 42013_TS_DEWT_052020.nc | 21-Nov-2024 12:18 | 449578 | ||
| 42013_TS_DEWT_052021.nc | 21-Nov-2024 13:25 | 449490 | ||
| 42013_TS_DEWT_052022.nc | 21-Nov-2024 14:30 | 449004 | ||
| 42013_TS_DEWT_052023.nc | 21-Nov-2024 15:26 | 432472 | ||
| 42013_TS_DEWT_062004.nc | 21-Nov-2024 01:46 | 450824 | ||
| 42013_TS_DEWT_062005.nc | 21-Nov-2024 02:39 | 450485 | ||
| 42013_TS_DEWT_062006.nc | 21-Nov-2024 03:24 | 450695 | ||
| 42013_TS_DEWT_062007.nc | 21-Nov-2024 04:02 | 450272 | ||
| 42013_TS_DEWT_062009.nc | 21-Nov-2024 05:02 | 451173 | ||
| 42013_TS_DEWT_062010.nc | 21-Nov-2024 05:54 | 450994 | ||
| 42013_TS_DEWT_062011.nc | 21-Nov-2024 06:44 | 451140 | ||
| 42013_TS_DEWT_062012.nc | 21-Nov-2024 07:32 | 450628 | ||
| 42013_TS_DEWT_062016.nc | 21-Nov-2024 08:52 | 450849 | ||
| 42013_TS_DEWT_062017.nc | 21-Nov-2024 09:36 | 449738 | ||
| 42013_TS_DEWT_062018.nc | 21-Nov-2024 10:29 | 451405 | ||
| 42013_TS_DEWT_062019.nc | 21-Nov-2024 11:22 | 450313 | ||
| 42013_TS_DEWT_062020.nc | 21-Nov-2024 12:24 | 451188 | ||
| 42013_TS_DEWT_062021.nc | 21-Nov-2024 13:30 | 451428 | ||
| 42013_TS_DEWT_062022.nc | 21-Nov-2024 14:35 | 450712 | ||
| 42013_TS_DEWT_062023.nc | 21-Nov-2024 15:31 | 450249 | ||
| 42013_TS_DEWT_072004.nc | 21-Nov-2024 01:51 | 450309 | ||
| 42013_TS_DEWT_072005.nc | 21-Nov-2024 02:43 | 450861 | ||
| 42013_TS_DEWT_072006.nc | 21-Nov-2024 03:28 | 451735 | ||
| 42013_TS_DEWT_072007.nc | 21-Nov-2024 04:07 | 437546 | ||
| 42013_TS_DEWT_072009.nc | 21-Nov-2024 05:06 | 450411 | ||
| 42013_TS_DEWT_072010.nc | 21-Nov-2024 05:59 | 450261 | ||
| 42013_TS_DEWT_072011.nc | 21-Nov-2024 06:49 | 449959 | ||
| 42013_TS_DEWT_072012.nc | 21-Nov-2024 07:37 | 448711 | ||
| 42013_TS_DEWT_072013.nc | 21-Nov-2024 07:50 | 438405 | ||
| 42013_TS_DEWT_072015.nc | 21-Nov-2024 08:00 | 450419 | ||
| 42013_TS_DEWT_072016.nc | 21-Nov-2024 08:56 | 449889 | ||
| 42013_TS_DEWT_072017.nc | 21-Nov-2024 09:41 | 450073 | ||
| 42013_TS_DEWT_072018.nc | 21-Nov-2024 10:34 | 449819 | ||
| 42013_TS_DEWT_072019.nc | 21-Nov-2024 11:27 | 449038 | ||
| 42013_TS_DEWT_072020.nc | 21-Nov-2024 12:29 | 450210 | ||
| 42013_TS_DEWT_072021.nc | 21-Nov-2024 13:36 | 449078 | ||
| 42013_TS_DEWT_072022.nc | 21-Nov-2024 14:40 | 450131 | ||
| 42013_TS_DEWT_072023.nc | 21-Nov-2024 15:36 | 449459 | ||
| 42013_TS_DEWT_082004.nc | 21-Nov-2024 01:55 | 450001 | ||
| 42013_TS_DEWT_082005.nc | 21-Nov-2024 02:47 | 448687 | ||
| 42013_TS_DEWT_082006.nc | 21-Nov-2024 03:34 | 449468 | ||
| 42013_TS_DEWT_082007.nc | 21-Nov-2024 04:11 | 450732 | ||
| 42013_TS_DEWT_082008.nc | 21-Nov-2024 04:20 | 449162 | ||
| 42013_TS_DEWT_082009.nc | 21-Nov-2024 05:09 | 433605 | ||
| 42013_TS_DEWT_082011.nc | 21-Nov-2024 06:53 | 433553 | ||
| 42013_TS_DEWT_082013.nc | 21-Nov-2024 07:55 | 450202 | ||
| 42013_TS_DEWT_082015.nc | 21-Nov-2024 08:04 | 451729 | ||
| 42013_TS_DEWT_082016.nc | 21-Nov-2024 09:01 | 451678 | ||
| 42013_TS_DEWT_082017.nc | 21-Nov-2024 09:46 | 448520 | ||
| 42013_TS_DEWT_082018.nc | 21-Nov-2024 10:39 | 450532 | ||
| 42013_TS_DEWT_082019.nc | 21-Nov-2024 11:31 | 450828 | ||
| 42013_TS_DEWT_082020.nc | 21-Nov-2024 12:35 | 449795 | ||
| 42013_TS_DEWT_082021.nc | 21-Nov-2024 13:42 | 450666 | ||
| 42013_TS_DEWT_082022.nc | 21-Nov-2024 14:44 | 450462 | ||
| 42013_TS_DEWT_082023.nc | 21-Nov-2024 15:41 | 451829 | ||
| 42013_TS_DEWT_092004.nc | 21-Nov-2024 01:59 | 450589 | ||
| 42013_TS_DEWT_092005.nc | 21-Nov-2024 02:50 | 451043 | ||
| 42013_TS_DEWT_092006.nc | 21-Nov-2024 03:39 | 450606 | ||
| 42013_TS_DEWT_092007.nc | 21-Nov-2024 04:16 | 450571 | ||
| 42013_TS_DEWT_092008.nc | 21-Nov-2024 04:25 | 451142 | ||
| 42013_TS_DEWT_092009.nc | 21-Nov-2024 05:13 | 450897 | ||
| 42013_TS_DEWT_092010.nc | 21-Nov-2024 06:03 | 450555 | ||
| 42013_TS_DEWT_092011.nc | 21-Nov-2024 06:57 | 449852 | ||
| 42013_TS_DEWT_092015.nc | 21-Nov-2024 08:08 | 425059 | ||
| 42013_TS_DEWT_092016.nc | 21-Nov-2024 09:05 | 429602 | ||
| 42013_TS_DEWT_092017.nc | 21-Nov-2024 09:51 | 429604 | ||
| 42013_TS_DEWT_092018.nc | 21-Nov-2024 10:43 | 429689 | ||
| 42013_TS_DEWT_092019.nc | 21-Nov-2024 11:35 | 429614 | ||
| 42013_TS_DEWT_092020.nc | 21-Nov-2024 12:40 | 429622 | ||
| 42013_TS_DEWT_092021.nc | 21-Nov-2024 13:48 | 429621 | ||
| 42013_TS_DEWT_092022.nc | 21-Nov-2024 14:48 | 429616 | ||
| 42013_TS_DEWT_092023.nc | 21-Nov-2024 15:46 | 429595 | ||
| 42013_TS_DEWT_102004.nc | 21-Nov-2024 02:03 | 429423 | ||
| 42013_TS_DEWT_102005.nc | 21-Nov-2024 02:55 | 429613 | ||
| 42013_TS_DEWT_102006.nc | 21-Nov-2024 03:43 | 429611 | ||
| 42013_TS_DEWT_102008.nc | 21-Nov-2024 04:29 | 429617 | ||
| 42013_TS_DEWT_102009.nc | 21-Nov-2024 05:18 | 429611 | ||
| 42013_TS_DEWT_102010.nc | 21-Nov-2024 06:08 | 425328 | ||
| 42013_TS_DEWT_102011.nc | 21-Nov-2024 07:00 | 429616 | ||
| 42013_TS_DEWT_102015.nc | 21-Nov-2024 08:13 | 429624 | ||
| 42013_TS_DEWT_102016.nc | 21-Nov-2024 09:09 | 429591 | ||
| 42013_TS_DEWT_102018.nc | 21-Nov-2024 10:48 | 429616 | ||
| 42013_TS_DEWT_102019.nc | 21-Nov-2024 11:39 | 429617 | ||
| 42013_TS_DEWT_102020.nc | 21-Nov-2024 12:45 | 429918 | ||
| 42013_TS_DEWT_102021.nc | 21-Nov-2024 13:53 | 429834 | ||
| 42013_TS_DEWT_102022.nc | 21-Nov-2024 14:53 | 429837 | ||
| 42013_TS_DEWT_102023.nc | 21-Nov-2024 15:50 | 429831 | ||
| 42013_TS_DEWT_112004.nc | 21-Nov-2024 02:08 | 429836 | ||
| 42013_TS_DEWT_112005.nc | 21-Nov-2024 03:00 | 429834 | ||
| 42013_TS_DEWT_112006.nc | 21-Nov-2024 03:46 | 429813 | ||
| 42013_TS_DEWT_112008.nc | 21-Nov-2024 04:33 | 429837 | ||
| 42013_TS_DEWT_112009.nc | 21-Nov-2024 05:22 | 429819 | ||
| 42013_TS_DEWT_112010.nc | 21-Nov-2024 06:12 | 429836 | ||
| 42013_TS_DEWT_112011.nc | 21-Nov-2024 07:03 | 429841 | ||
| 42013_TS_DEWT_112012.nc | 21-Nov-2024 07:41 | 429833 | ||
| 42013_TS_DEWT_112015.nc | 21-Nov-2024 08:18 | 429837 | ||
| 42013_TS_DEWT_112016.nc | 21-Nov-2024 09:11 | 429835 | ||
| 42013_TS_DEWT_112017.nc | 21-Nov-2024 09:55 | 429834 | ||
| 42013_TS_DEWT_112018.nc | 21-Nov-2024 10:53 | 429729 | ||
| 42013_TS_DEWT_112019.nc | 21-Nov-2024 11:45 | 429830 | ||
| 42013_TS_DEWT_112020.nc | 21-Nov-2024 12:50 | 429838 | ||
| 42013_TS_DEWT_112021.nc | 21-Nov-2024 13:59 | 429837 | ||
| 42013_TS_DEWT_112022.nc | 21-Nov-2024 14:58 | 429831 | ||
| 42013_TS_DEWT_112023.nc | 21-Nov-2024 15:54 | 428589 | ||
| 42013_TS_DEWT_122004.nc | 21-Nov-2024 02:13 | 428602 | ||
| 42013_TS_DEWT_122006.nc | 21-Nov-2024 03:50 | 428612 | ||
| 42013_TS_DEWT_122008.nc | 21-Nov-2024 04:38 | 423298 | ||
| 42013_TS_DEWT_122009.nc | 21-Nov-2024 05:26 | 428617 | ||
| 42013_TS_DEWT_122010.nc | 21-Nov-2024 06:16 | 428617 | ||
| 42013_TS_DEWT_122011.nc | 21-Nov-2024 07:07 | 428617 | ||
| 42013_TS_DEWT_122012.nc | 21-Nov-2024 07:46 | 428954 | ||
| 42013_TS_DEWT_122015.nc | 21-Nov-2024 08:22 | 428539 | ||
| 42013_TS_DEWT_122016.nc | 21-Nov-2024 09:14 | 428459 | ||
| 42013_TS_DEWT_122017.nc | 21-Nov-2024 10:00 | 428617 | ||
| 42013_TS_DEWT_122018.nc | 21-Nov-2024 10:58 | 428962 | ||
| 42013_TS_DEWT_122019.nc | 21-Nov-2024 11:51 | 428614 | ||
| 42013_TS_DEWT_122020.nc | 21-Nov-2024 12:55 | 428616 | ||
| 42013_TS_DEWT_122021.nc | 21-Nov-2024 14:05 | 428614 | ||
| 42013_TS_DEWT_122022.nc | 21-Nov-2024 15:03 | 428960 | ||
| 42013_TS_DEWT_122023.nc | 21-Nov-2024 15:58 | 428617 | ||